Time,TemperatureF,DewpointF,PressureIn,WindDirection,WindDirectionDegrees,WindSpeedMPH,WindSpeedGustMPH,Humidity,HourlyPrecipIn,Conditions,Clouds,dailyrainin,SolarRadiationWatts/m^2,SoftwareType,DateUTC
2013-02-16 00:03:00,4.8,-2.8,30.24,WNW,296,1.0,1.0,70,0.00,,---,0.00,0.00,VWS V14.00,2013-02-16 06:03:00,
2013-02-16 00:08:00,4.8,-2.8,30.24,NW,305,1.0,1.0,70,0.00,,---,0.00,0.00,VWS V14.00,2013-02-16 06:08:00,
2013-02-16 00:13:00,4.8,-2.8,30.24,NW,313,1.0,1.0,70,0.00,,---,0.00,0.00,VWS V14.00,2013-02-16 06:13:00,
2013-02-16 00:18:00,4.7,-2.9,30.24,NW,305,2.0,2.0,70,0.00,,---,0.00,0.00,VWS V14.00,2013-02-16 06:18:00,
2013-02-16 00:23:00,4.5,-3.1,30.24,WNW,291,1.0,3.0,70,0.00,,---,0.00,0.00,VWS V14.00,2013-02-16 06:23:00,
2013-02-16 00:28:00,4.5,-3.1,30.24,NW,315,1.0,2.0,70,0.00,,---,0.00,0.00,VWS V14.00,2013-02-16 06:28:00,
2013-02-16 00:33:00,4.3,-3.3,30.23,WNW,285,1.0,1.0,70,0.00,,---,0.00,0.00,VWS V14.00,2013-02-16 06:33:00,
2013-02-16 00:38:00,4.1,-3.5,30.23,NW,313,1.0,1.0,70,0.00,,---,0.00,0.00,VWS V14.00,2013-02-16 06:38:00,
2013-02-16 00:43:00,4.1,-3.5,30.23,West,277,2.0,2.0,70,0.00,,---,0.00,0.00,VWS V14.00,2013-02-16 06:43:00,
2013-02-16 00:48:00,3.9,-3.7,30.24,NW,309,2.0,2.0,70,0.00,,---,0.00,0.00,VWS V14.00,2013-02-16 06:48:00,
2013-02-16 00:53:00,3.9,-3.7,30.24,WNW,295,3.0,3.0,70,0.00,,---,0.00,0.00,VWS V14.00,2013-02-16 06:53:00,
2013-02-16 00:58:00,3.9,-3.7,30.24,WNW,291,1.0,1.0,70,0.00,,---,0.00,0.00,VWS V14.00,2013-02-16 06:58:00,
2013-02-16 01:03:00,3.9,-3.7,30.24,NW,306,3.0,3.0,70,0.00,,---,0.00,0.00,VWS V14.00,2013-02-16 07:03:00,
2013-02-16 01:08:00,3.5,-3.2,30.24,WNW,301,2.0,2.0,73,0.00,,---,0.00,0.00,VWS V14.00,2013-02-16 07:08:00,
2013-02-16 01:13:00,3.5,-3.2,30.24,WNW,282,2.0,2.0,73,0.00,,---,0.00,0.00,VWS V14.00,2013-02-16 07:13:00,
2013-02-16 01:18:00,3.5,-3.2,30.23,WNW,291,2.0,2.0,73,0.00,,---,0.00,0.00,VWS V14.00,2013-02-16 07:18:00,
2013-02-16 01:23:00,3.4,-3.3,30.23,WNW,302,3.0,4.0,73,0.00,,---,0.00,0.00,VWS V14.00,2013-02-16 07:23:00,
2013-02-16 01:28:00,3.4,-3.3,30.23,WNW,289,5.0,6.0,73,0.00,,---,0.00,0.00,VWS V14.00,2013-02-16 07:28:00,
2013-02-16 01:33:00,3.4,-3.3,30.24,West,277,2.0,2.0,73,0.00,,---,0.00,0.00,VWS V14.00,2013-02-16 07:33:00,
2013-02-16 01:38:00,3.4,-3.3,30.24,WNW,284,2.0,2.0,73,0.00,,---,0.00,0.00,VWS V14.00,2013-02-16 07:38:00,
2013-02-16 01:43:00,3.4,-3.3,30.24,West,280,1.0,1.0,73,0.00,,---,0.00,0.00,VWS V14.00,2013-02-16 07:43:00,
2013-02-16 01:48:00,3.4,-3.3,30.24,WNW,291,5.0,5.0,73,0.00,,---,0.00,0.00,VWS V14.00,2013-02-16 07:48:00,
2013-02-16 01:53:00,3.2,-3.5,30.24,NW,305,3.0,3.0,73,0.00,,---,0.00,0.00,VWS V14.00,2013-02-16 07:53:00,
2013-02-16 01:58:00,3.2,-3.5,30.24,WNW,301,1.0,1.0,73,0.00,,---,0.00,0.00,VWS V14.00,2013-02-16 07:58:00,
2013-02-16 02:03:00,3.0,-3.7,30.24,WNW,285,1.0,1.0,73,0.00,,---,0.00,0.00,VWS V14.00,2013-02-16 08:03:00,
2013-02-16 02:08:00,3.0,-3.7,30.24,WNW,288,2.0,2.0,73,0.00,,---,0.00,0.00,VWS V14.00,2013-02-16 08:08:00,
2013-02-16 02:13:00,2.8,-3.9,30.24,WNW,289,1.0,1.0,73,0.00,,---,0.00,0.00,VWS V14.00,2013-02-16 08:13:00,
2013-02-16 02:18:00,2.6,-4.1,30.23,West,275,1.0,1.0,73,0.00,,---,0.00,0.00,VWS V14.00,2013-02-16 08:18:00,
2013-02-16 02:23:00,2.2,-4.4,30.23,West,274,3.0,3.0,73,0.00,,---,0.00,0.00,VWS V14.00,2013-02-16 08:23:00,
2013-02-16 02:28:00,2.2,-4.4,30.23,West,268,1.0,1.0,73,0.00,,---,0.00,0.00,VWS V14.00,2013-02-16 08:28:00,
2013-02-16 02:33:00,2.0,-4.4,30.23,West,265,2.0,2.0,74,0.00,,---,0.00,0.00,VWS V14.00,2013-02-16 08:33:00,
2013-02-16 02:38:00,1.8,-4.6,30.23,WNW,295,2.0,2.0,74,0.00,,---,0.00,0.00,VWS V14.00,2013-02-16 08:38:00,
2013-02-16 02:43:00,1.8,-4.6,30.23,WNW,295,5.0,5.0,74,0.00,,---,0.00,0.00,VWS V14.00,2013-02-16 08:43:00,
2013-02-16 02:48:00,1.8,-4.6,30.23,WNW,282,1.0,1.0,74,0.00,,---,0.00,0.00,VWS V14.00,2013-02-16 08:48:00,
2013-02-16 02:53:00,1.7,-4.7,30.23,West,275,2.0,2.0,74,0.00,,---,0.00,0.00,VWS V14.00,2013-02-16 08:53:00,
2013-02-16 02:58:00,1.7,-4.7,30.23,WNW,289,1.0,3.0,74,0.00,,---,0.00,0.00,VWS V14.00,2013-02-16 08:58:00,
2013-02-16 03:03:00,1.7,-4.7,30.23,WNW,288,1.0,1.0,74,0.00,,---,0.00,0.00,VWS V14.00,2013-02-16 09:03:00,
2013-02-16 03:08:00,1.5,-4.8,30.23,West,281,2.0,2.0,74,0.00,,---,0.00,0.00,VWS V14.00,2013-02-16 09:08:00,
2013-02-16 03:13:00,1.5,-4.8,30.23,WNW,284,2.0,2.0,74,0.00,,---,0.00,0.00,VWS V14.00,2013-02-16 09:13:00,
2013-02-16 03:18:00,1.5,-4.8,30.22,WNW,282,2.0,2.0,74,0.00,,---,0.00,0.00,VWS V14.00,2013-02-16 09:18:00,
2013-02-16 03:23:00,1.5,-4.8,30.22,WNW,295,2.0,2.0,74,0.00,,---,0.00,0.00,VWS V14.00,2013-02-16 09:23:00,
2013-02-16 03:28:00,1.5,-4.6,30.22,WNW,292,3.0,3.0,75,0.00,,---,0.00,0.00,VWS V14.00,2013-02-16 09:28:00,
2013-02-16 03:33:00,1.5,-4.6,30.21,WNW,296,1.0,1.0,75,0.00,,---,0.00,0.00,VWS V14.00,2013-02-16 09:33:00,
2013-02-16 03:38:00,1.7,-4.4,30.21,WNW,289,1.0,2.0,75,0.00,,---,0.00,0.00,VWS V14.00,2013-02-16 09:38:00,
2013-02-16 03:43:00,1.8,-4.0,30.21,WNW,301,2.0,3.0,76,0.00,,---,0.00,0.00,VWS V14.00,2013-02-16 09:43:00,
2013-02-16 03:48:00,1.8,-4.0,30.20,WNW,292,0.0,1.0,76,0.00,,---,0.00,0.00,VWS V14.00,2013-02-16 09:48:00,
2013-02-16 03:53:00,1.8,-4.0,30.20,West,275,6.0,6.0,76,0.00,,---,0.00,0.00,VWS V14.00,2013-02-16 09:53:00,
2013-02-16 03:58:00,2.0,-3.8,30.20,West,278,2.0,2.0,76,0.00,,---,0.00,0.00,VWS V14.00,2013-02-16 09:58:00,
2013-02-16 04:03:00,2.0,-3.8,30.20,West,271,2.0,2.0,76,0.00,,---,0.00,0.00,VWS V14.00,2013-02-16 10:03:00,
2013-02-16 04:08:00,2.0,-3.8,30.20,WNW,285,0.0,0.0,76,0.00,,---,0.00,0.00,VWS V14.00,2013-02-16 10:08:00,
2013-02-16 04:13:00,2.0,-3.8,30.20,WNW,285,1.0,1.0,76,0.00,,---,0.00,0.00,VWS V14.00,2013-02-16 10:13:00,
2013-02-16 04:18:00,2.0,-3.8,30.20,WNW,287,2.0,2.0,76,0.00,,---,0.00,0.00,VWS V14.00,2013-02-16 10:18:00,
2013-02-16 04:23:00,2.0,-3.8,30.20,WNW,287,1.0,3.0,76,0.00,,---,0.00,0.00,VWS V14.00,2013-02-16 10:23:00,
2013-02-16 04:28:00,2.0,-3.8,30.20,WNW,291,1.0,2.0,76,0.00,,---,0.00,0.00,VWS V14.00,2013-02-16 10:28:00,
2013-02-16 04:33:00,2.2,-3.6,30.20,WNW,295,2.0,2.0,76,0.00,,---,0.00,0.00,VWS V14.00,2013-02-16 10:33:00,
2013-02-16 04:38:00,2.2,-3.6,30.20,West,277,2.0,2.0,76,0.00,,---,0.00,0.00,VWS V14.00,2013-02-16 10:38:00,
2013-02-16 04:43:00,2.2,-3.6,30.20,West,277,2.0,2.0,76,0.00,,---,0.00,0.00,VWS V14.00,2013-02-16 10:43:00,
2013-02-16 04:48:00,2.6,-3.2,30.20,WNW,288,1.0,2.0,76,0.00,,---,0.00,0.00,VWS V14.00,2013-02-16 10:48:00,
2013-02-16 04:53:00,2.6,-3.2,30.20,WNW,292,1.0,1.0,76,0.00,,---,0.00,0.00,VWS V14.00,2013-02-16 10:53:00,
2013-02-16 04:58:00,2.6,-3.2,30.20,WNW,294,1.0,1.0,76,0.00,,---,0.00,0.00,VWS V14.00,2013-02-16 10:58:00,
2013-02-16 05:02:00,2.8,-3.0,30.20,WNW,294,0.0,0.0,76,0.00,,---,0.00,0.00,VWS V14.00,2013-02-16 11:02:00,
2013-02-16 05:07:00,2.8,-3.0,30.20,WNW,294,1.0,1.0,76,0.00,,---,0.00,0.00,VWS V14.00,2013-02-16 11:07:00,
2013-02-16 05:12:00,2.8,-3.0,30.20,WNW,294,1.0,1.0,76,0.00,,---,0.00,0.00,VWS V14.00,2013-02-16 11:12:00,
2013-02-16 05:17:00,2.8,-3.0,30.20,WNW,294,1.0,1.0,76,0.00,,---,0.00,0.00,VWS V14.00,2013-02-16 11:17:00,
2013-02-16 05:22:00,3.0,-2.8,30.20,WNW,287,1.0,1.0,76,0.00,,---,0.00,0.00,VWS V14.00,2013-02-16 11:22:00,
2013-02-16 05:27:00,3.0,-2.8,30.20,WNW,287,0.0,1.0,76,0.00,,---,0.00,0.00,VWS V14.00,2013-02-16 11:27:00,
2013-02-16 05:32:00,3.0,-2.8,30.20,WNW,284,1.0,1.0,76,0.00,,---,0.00,0.00,VWS V14.00,2013-02-16 11:32:00,
2013-02-16 05:37:00,3.0,-2.8,30.20,WNW,284,1.0,1.0,76,0.00,,---,0.00,0.00,VWS V14.00,2013-02-16 11:37:00,
2013-02-16 05:42:00,3.2,-2.6,30.20,West,280,1.0,1.0,76,0.00,,---,0.00,0.00,VWS V14.00,2013-02-16 11:42:00,
2013-02-16 05:47:00,3.2,-2.6,30.19,West,260,0.0,0.0,76,0.00,,---,0.00,0.00,VWS V14.00,2013-02-16 11:47:00,
2013-02-16 05:52:00,3.4,-2.5,30.19,WSW,237,0.0,0.0,76,0.00,,---,0.00,0.00,VWS V14.00,2013-02-16 11:52:00,
2013-02-16 05:57:00,3.4,-2.5,30.19,WSW,237,0.0,0.0,76,0.00,,---,0.00,0.00,VWS V14.00,2013-02-16 11:57:00,
2013-02-16 06:02:00,3.4,-2.5,30.19,WSW,237,0.0,0.0,76,0.00,,---,0.00,0.00,VWS V14.00,2013-02-16 12:02:00,
2013-02-16 06:07:00,3.4,-2.5,30.19,WSW,237,0.0,1.0,76,0.00,,---,0.00,0.00,VWS V14.00,2013-02-16 12:07:00,
2013-02-16 06:12:00,3.4,-2.5,30.19,WSW,237,1.0,1.0,76,0.00,,---,0.00,0.00,VWS V14.00,2013-02-16 12:12:00,
2013-02-16 06:17:00,3.5,-2.3,30.19,West,280,0.0,0.0,76,0.00,,---,0.00,0.00,VWS V14.00,2013-02-16 12:17:00,
2013-02-16 06:22:00,3.5,-2.3,30.19,SW,230,0.0,0.0,76,0.00,,---,0.00,0.00,VWS V14.00,2013-02-16 12:22:00,
2013-02-16 06:27:00,3.5,-2.3,30.19,West,268,1.0,1.0,76,0.00,,---,0.00,0.00,VWS V14.00,2013-02-16 12:27:00,
2013-02-16 06:32:00,3.7,-2.2,30.19,West,270,0.0,0.0,76,0.00,,---,0.00,0.00,VWS V14.00,2013-02-16 12:32:00,
2013-02-16 06:37:00,3.7,-1.9,30.19,West,270,0.0,0.0,77,0.00,,---,0.00,0.00,VWS V14.00,2013-02-16 12:37:00,
2013-02-16 06:42:00,3.9,-1.7,30.19,West,270,0.0,0.0,77,0.00,,---,0.00,0.00,VWS V14.00,2013-02-16 12:42:00,
2013-02-16 06:47:00,3.9,-1.7,30.19,West,270,0.0,0.0,77,0.00,,---,0.00,0.00,VWS V14.00,2013-02-16 12:47:00,
2013-02-16 06:52:00,4.1,-1.5,30.19,West,270,0.0,0.0,77,0.00,,---,0.00,0.00,VWS V14.00,2013-02-16 12:52:00,
2013-02-16 06:57:00,4.1,-1.5,30.19,West,270,0.0,0.0,77,0.00,,---,0.00,0.00,VWS V14.00,2013-02-16 12:57:00,
2013-02-16 07:02:00,4.1,-1.5,30.19,West,270,0.0,0.0,77,0.00,,---,0.00,0.00,VWS V14.00,2013-02-16 13:02:00,
2013-02-16 07:07:00,4.3,-1.3,30.19,West,270,0.0,0.0,77,0.00,,---,0.00,0.00,VWS V14.00,2013-02-16 13:07:00,
2013-02-16 07:12:00,4.3,-1.3,30.19,West,261,0.0,0.0,77,0.00,,---,0.00,0.00,VWS V14.00,2013-02-16 13:12:00,
2013-02-16 07:17:00,4.3,-1.3,30.20,West,274,1.0,1.0,77,0.00,,---,0.00,0.00,VWS V14.00,2013-02-16 13:17:00,
2013-02-16 07:22:00,4.3,-1.3,30.20,West,274,0.0,0.0,77,0.00,,---,0.00,0.00,VWS V14.00,2013-02-16 13:22:00,
2013-02-16 07:27:00,4.3,-1.3,30.20,West,274,0.0,0.0,77,0.00,,---,0.00,0.00,VWS V14.00,2013-02-16 13:27:00,
2013-02-16 07:32:00,4.3,-1.3,30.20,West,274,0.0,0.0,77,0.00,,---,0.00,0.00,VWS V14.00,2013-02-16 13:32:00,
2013-02-16 07:37:00,4.3,-1.3,30.20,West,274,0.0,0.0,77,0.00,,---,0.00,0.00,VWS V14.00,2013-02-16 13:37:00,
2013-02-16 07:42:00,4.3,-1.3,30.20,WNW,288,1.0,1.0,77,0.00,,---,0.00,0.00,VWS V14.00,2013-02-16 13:42:00,
2013-02-16 07:47:00,4.3,-1.3,30.20,WNW,288,1.0,1.0,77,0.00,,---,0.00,0.00,VWS V14.00,2013-02-16 13:47:00,
2013-02-16 07:52:00,4.3,-1.3,30.20,WNW,287,0.0,0.0,77,0.00,,---,0.00,0.00,VWS V14.00,2013-02-16 13:52:00,
2013-02-16 07:57:00,4.5,-1.1,30.20,WNW,288,0.0,0.0,77,0.00,,---,0.00,44.00,VWS V14.00,2013-02-16 13:57:00,
2013-02-16 08:02:00,4.5,-1.1,30.20,WNW,288,0.0,0.0,77,0.00,,---,0.00,44.00,VWS V14.00,2013-02-16 14:02:00,
2013-02-16 08:07:00,4.5,-1.1,30.20,NW,315,2.0,2.0,77,0.00,,---,0.00,44.00,VWS V14.00,2013-02-16 14:07:00,
2013-02-16 08:12:00,4.8,-0.8,30.20,WNW,282,2.0,2.0,77,0.00,,---,0.00,44.00,VWS V14.00,2013-02-16 14:12:00,
2013-02-16 08:17:00,5.0,-0.6,30.20,WNW,282,2.0,2.0,77,0.00,,---,0.00,44.00,VWS V14.00,2013-02-16 14:17:00,
2013-02-16 08:22:00,5.4,-0.2,30.20,WNW,285,1.0,1.0,77,0.00,,---,0.00,44.00,VWS V14.00,2013-02-16 14:22:00,
2013-02-16 08:27:00,5.6,0.0,30.20,NW,316,2.0,2.0,77,0.00,,---,0.00,44.00,VWS V14.00,2013-02-16 14:27:00,
2013-02-16 08:32:00,5.8,0.2,30.20,West,268,2.0,2.0,77,0.00,,---,0.00,44.00,VWS V14.00,2013-02-16 14:32:00,
2013-02-16 08:37:00,6.0,0.3,30.20,WNW,282,1.0,1.0,77,0.00,,---,0.00,44.00,VWS V14.00,2013-02-16 14:37:00,
2013-02-16 08:42:00,6.3,0.6,30.20,WNW,295,1.0,1.0,77,0.00,,---,0.00,44.00,VWS V14.00,2013-02-16 14:42:00,
2013-02-16 08:47:00,6.5,0.6,30.20,West,278,1.0,1.0,76,0.00,,---,0.00,135.00,VWS V14.00,2013-02-16 14:47:00,
2013-02-16 08:52:00,6.9,0.9,30.20,NW,306,1.0,1.0,76,0.00,,---,0.00,141.00,VWS V14.00,2013-02-16 14:52:00,
2013-02-16 08:57:00,7.0,1.0,30.20,WNW,291,1.0,1.0,76,0.00,,---,0.00,127.00,VWS V14.00,2013-02-16 14:57:00,
2013-02-16 09:02:00,7.0,1.0,30.19,WNW,289,1.0,1.0,76,0.00,,---,0.00,144.00,VWS V14.00,2013-02-16 15:02:00,
2013-02-16 09:07:00,7.2,1.0,30.19,West,280,2.0,2.0,75,0.00,,---,0.00,144.00,VWS V14.00,2013-02-16 15:07:00,
2013-02-16 09:12:00,7.2,1.0,30.19,West,280,1.0,1.0,75,0.00,,---,0.00,151.00,VWS V14.00,2013-02-16 15:12:00,
2013-02-16 09:17:00,7.6,1.4,30.20,West,281,1.0,1.0,75,0.00,,---,0.00,151.00,VWS V14.00,2013-02-16 15:17:00,
2013-02-16 09:22:00,7.7,1.2,30.20,WNW,289,2.0,2.0,74,0.00,,---,0.00,187.00,VWS V14.00,2013-02-16 15:22:00,
2013-02-16 09:27:00,7.7,1.2,30.20,West,278,1.0,1.0,74,0.00,,---,0.00,187.00,VWS V14.00,2013-02-16 15:27:00,
2013-02-16 09:32:00,7.9,1.4,30.20,NW,318,1.0,1.0,74,0.00,,---,0.00,187.00,VWS V14.00,2013-02-16 15:32:00,
2013-02-16 09:37:00,7.9,1.4,30.20,West,265,1.0,1.0,74,0.00,,---,0.00,187.00,VWS V14.00,2013-02-16 15:37:00,
2013-02-16 09:42:00,7.9,1.4,30.20,WSW,243,1.0,1.0,74,0.00,,---,0.00,187.00,VWS V14.00,2013-02-16 15:42:00,
2013-02-16 09:47:00,8.4,1.8,30.19,NW,309,1.0,1.0,74,0.00,,---,0.00,187.00,VWS V14.00,2013-02-16 15:47:00,
2013-02-16 09:52:00,8.4,1.8,30.19,West,281,1.0,1.0,74,0.00,,---,0.00,187.00,VWS V14.00,2013-02-16 15:52:00,
2013-02-16 09:57:00,8.6,2.0,30.19,WSW,250,1.0,1.0,74,0.00,,---,0.00,187.00,VWS V14.00,2013-02-16 15:57:00,
2013-02-16 10:02:00,9.5,2.9,30.19,WNW,301,2.0,2.0,74,0.00,,---,0.00,187.00,VWS V14.00,2013-02-16 16:02:00,
2013-02-16 10:07:00,9.5,2.9,30.19,NNW,332,1.0,1.0,74,0.00,,---,0.00,187.00,VWS V14.00,2013-02-16 16:07:00,
2013-02-16 10:12:00,9.7,3.1,30.19,NNW,330,1.0,1.0,74,0.00,,---,0.00,238.00,VWS V14.00,2013-02-16 16:12:00,
2013-02-16 10:17:00,9.7,3.1,30.19,NNW,330,2.0,2.0,74,0.00,,---,0.00,238.00,VWS V14.00,2013-02-16 16:17:00,
2013-02-16 10:22:00,10.0,3.4,30.19,NW,318,2.0,2.0,74,0.00,,---,0.00,238.00,VWS V14.00,2013-02-16 16:22:00,
2013-02-16 10:27:00,10.5,2.4,30.19,North,11,2.0,2.0,69,0.00,,---,0.00,238.00,VWS V14.00,2013-02-16 16:27:00,
2013-02-16 10:32:00,10.5,2.4,30.19,NE,40,3.0,3.0,69,0.00,,---,0.00,259.00,VWS V14.00,2013-02-16 16:32:00,
2013-02-16 10:37:00,10.5,2.4,30.19,North,4,1.0,1.0,69,0.00,,---,0.00,259.00,VWS V14.00,2013-02-16 16:37:00,
2013-02-16 10:42:00,10.5,1.7,30.19,North,6,0.0,0.0,67,0.00,,---,0.00,259.00,VWS V14.00,2013-02-16 16:42:00,
2013-02-16 10:47:00,11.1,2.3,30.19,North,4,2.0,2.0,67,0.00,,---,0.00,259.00,VWS V14.00,2013-02-16 16:47:00,
2013-02-16 10:52:00,11.1,2.3,30.19,North,0,1.0,1.0,67,0.00,,---,0.00,280.00,VWS V14.00,2013-02-16 16:52:00,
2013-02-16 10:57:00,11.2,2.4,30.19,NNE,18,3.0,3.0,67,0.00,,---,0.00,280.00,VWS V14.00,2013-02-16 16:57:00,
2013-02-16 11:02:00,11.7,2.9,30.18,NW,306,4.0,4.0,67,0.00,,---,0.00,280.00,VWS V14.00,2013-02-16 17:02:00,
2013-02-16 11:07:00,11.7,2.9,30.18,NW,315,3.0,3.0,67,0.00,,---,0.00,280.00,VWS V14.00,2013-02-16 17:07:00,
2013-02-16 11:12:00,11.4,2.6,30.18,WSW,240,2.0,2.0,67,0.00,,---,0.00,280.00,VWS V14.00,2013-02-16 17:12:00,
2013-02-16 11:17:00,11.4,2.6,30.18,West,277,2.0,2.0,67,0.00,,---,0.00,280.00,VWS V14.00,2013-02-16 17:17:00,
2013-02-16 11:22:00,11.7,2.9,30.18,NW,318,1.0,1.0,67,0.00,,---,0.00,280.00,VWS V14.00,2013-02-16 17:22:00,
2013-02-16 11:27:00,12.4,2.6,30.18,ESE,121,2.0,2.0,64,0.00,,---,0.00,280.00,VWS V14.00,2013-02-16 17:27:00,
2013-02-16 11:32:00,12.4,2.6,30.18,ENE,66,1.0,2.0,64,0.00,,---,0.00,280.00,VWS V14.00,2013-02-16 17:32:00,
2013-02-16 11:37:00,11.9,2.1,30.18,East,95,2.0,2.0,64,0.00,,---,0.00,280.00,VWS V14.00,2013-02-16 17:37:00,
2013-02-16 11:42:00,12.1,2.3,30.18,East,99,0.0,0.0,64,0.00,,---,0.00,280.00,VWS V14.00,2013-02-16 17:42:00,
2013-02-16 11:47:00,12.9,3.0,30.18,WNW,299,3.0,3.0,64,0.00,,---,0.00,280.00,VWS V14.00,2013-02-16 17:47:00,
2013-02-16 11:52:00,12.9,3.0,30.18,WNW,301,1.0,2.0,64,0.00,,---,0.00,280.00,VWS V14.00,2013-02-16 17:52:00,
2013-02-16 11:57:00,13.1,2.2,30.18,SE,130,2.0,2.0,61,0.00,,---,0.00,574.00,VWS V14.00,2013-02-16 17:57:00,
2013-02-16 12:02:00,14.3,3.3,30.17,East,96,2.0,2.0,61,0.00,,---,0.00,574.00,VWS V14.00,2013-02-16 18:02:00,
2013-02-16 12:07:00,14.9,3.9,30.17,SSW,203,0.0,3.0,61,0.00,,---,0.00,574.00,VWS V14.00,2013-02-16 18:07:00,
2013-02-16 12:12:00,15.6,4.6,30.17,SSW,213,0.0,1.0,61,0.00,,---,0.00,574.00,VWS V14.00,2013-02-16 18:12:00,
2013-02-16 12:17:00,15.6,4.6,30.17,East,92,2.0,2.0,61,0.00,,---,0.00,574.00,VWS V14.00,2013-02-16 18:17:00,
2013-02-16 12:22:00,15.4,4.4,30.17,ESE,119,2.0,3.0,61,0.00,,---,0.00,574.00,VWS V14.00,2013-02-16 18:22:00,
2013-02-16 12:27:00,15.7,4.7,30.17,ENE,68,1.0,1.0,61,0.00,,---,0.00,530.00,VWS V14.00,2013-02-16 18:27:00,
2013-02-16 12:32:00,15.7,4.7,30.16,NE,47,1.0,1.0,61,0.00,,---,0.00,530.00,VWS V14.00,2013-02-16 18:32:00,
2013-02-16 12:37:00,15.7,4.7,30.16,NNW,328,0.0,2.0,61,0.00,,---,0.00,545.00,VWS V14.00,2013-02-16 18:37:00,
2013-02-16 12:42:00,15.9,4.8,30.16,NNE,24,1.0,1.0,61,0.00,,---,0.00,545.00,VWS V14.00,2013-02-16 18:42:00,
2013-02-16 12:47:00,16.1,5.0,30.16,ESE,109,3.0,3.0,61,0.00,,---,0.00,540.00,VWS V14.00,2013-02-16 18:47:00,
2013-02-16 12:52:00,16.1,5.0,30.16,ESE,123,2.0,2.0,61,0.00,,---,0.00,540.00,VWS V14.00,2013-02-16 18:52:00,
2013-02-16 12:57:00,16.1,5.0,30.16,ESE,116,1.0,2.0,61,0.00,,---,0.00,540.00,VWS V14.00,2013-02-16 18:57:00,
2013-02-16 13:02:00,16.7,5.6,30.15,East,88,1.0,1.0,61,0.00,,---,0.00,540.00,VWS V14.00,2013-02-16 19:02:00,
2013-02-16 13:07:00,17.0,5.9,30.15,SSW,200,2.0,3.0,61,0.00,,---,0.00,540.00,VWS V14.00,2013-02-16 19:07:00,
2013-02-16 13:12:00,17.2,6.1,30.15,South,182,1.0,1.0,61,0.00,,---,0.00,55.00,VWS V14.00,2013-02-16 19:12:00,
2013-02-16 13:17:00,17.8,6.6,30.15,SSW,200,2.0,2.0,61,0.00,,---,0.00,55.00,VWS V14.00,2013-02-16 19:17:00,
2013-02-16 13:22:00,17.7,3.5,30.15,West,268,2.0,2.0,53,0.00,,---,0.00,55.00,VWS V14.00,2013-02-16 19:22:00,
2013-02-16 13:27:00,17.7,3.5,30.15,West,281,2.0,2.0,53,0.00,,---,0.00,55.00,VWS V14.00,2013-02-16 19:27:00,
2013-02-16 13:32:00,17.5,3.3,30.14,South,176,2.0,3.0,53,0.00,,---,0.00,55.00,VWS V14.00,2013-02-16 19:32:00,
2013-02-16 13:37:00,17.5,3.3,30.14,SSW,199,3.0,3.0,53,0.00,,---,0.00,53.00,VWS V14.00,2013-02-16 19:37:00,
2013-02-16 13:42:00,17.8,3.6,30.14,SW,226,2.0,3.0,53,0.00,,---,0.00,53.00,VWS V14.00,2013-02-16 19:42:00,
2013-02-16 13:47:00,17.8,3.2,30.14,SW,220,3.0,3.0,52,0.00,,---,0.00,53.00,VWS V14.00,2013-02-16 19:47:00,
2013-02-16 13:52:00,17.8,3.2,30.14,NNW,347,1.0,2.0,52,0.00,,---,0.00,53.00,VWS V14.00,2013-02-16 19:52:00,
2013-02-16 13:57:00,17.7,3.1,30.14,South,171,1.0,1.0,52,0.00,,---,0.00,53.00,VWS V14.00,2013-02-16 19:57:00,
2013-02-16 14:02:00,17.5,3.3,30.13,South,188,1.0,1.0,53,0.00,,---,0.00,53.00,VWS V14.00,2013-02-16 20:02:00,
2013-02-16 14:07:00,17.7,3.5,30.13,NW,311,2.0,2.0,53,0.00,,---,0.00,49.00,VWS V14.00,2013-02-16 20:07:00,
2013-02-16 14:12:00,17.2,2.6,30.13,NW,322,3.0,5.0,52,0.00,,---,0.00,48.00,VWS V14.00,2013-02-16 20:12:00,
2013-02-16 14:17:00,16.7,2.1,30.13,SSW,199,5.0,5.0,52,0.00,,---,0.00,48.00,VWS V14.00,2013-02-16 20:17:00,
2013-02-16 14:22:00,16.9,3.1,30.13,SSW,205,3.0,3.0,54,0.00,,---,0.00,48.00,VWS V14.00,2013-02-16 20:22:00,
2013-02-16 14:27:00,17.3,3.5,30.13,South,185,2.0,3.0,54,0.00,,---,0.00,48.00,VWS V14.00,2013-02-16 20:27:00,
2013-02-16 14:32:00,18.0,4.6,30.13,SSE,164,3.0,3.0,55,0.00,,---,0.00,48.00,VWS V14.00,2013-02-16 20:32:00,
2013-02-16 14:37:00,18.1,3.9,30.13,WSW,241,2.0,2.0,53,0.00,,---,0.00,48.00,VWS V14.00,2013-02-16 20:37:00,
2013-02-16 14:42:00,18.6,3.9,30.13,West,267,1.0,2.0,52,0.00,,---,0.00,48.00,VWS V14.00,2013-02-16 20:42:00,
2013-02-16 14:47:00,18.8,4.1,30.13,SW,222,1.0,6.0,52,0.00,,---,0.00,48.00,VWS V14.00,2013-02-16 20:47:00,
2013-02-16 14:52:00,18.9,4.2,30.13,SSW,203,2.0,2.0,52,0.00,,---,0.00,391.00,VWS V14.00,2013-02-16 20:52:00,
2013-02-16 14:57:00,18.9,4.2,30.13,SSW,209,3.0,3.0,52,0.00,,---,0.00,385.00,VWS V14.00,2013-02-16 20:57:00,
2013-02-16 15:02:00,18.9,4.2,30.13,SE,126,2.0,2.0,52,0.00,,---,0.00,377.00,VWS V14.00,2013-02-16 21:02:00,
2013-02-16 15:07:00,19.1,4.0,30.13,South,189,1.0,1.0,51,0.00,,---,0.00,377.00,VWS V14.00,2013-02-16 21:07:00,
2013-02-16 15:12:00,18.9,3.8,30.13,WSW,256,1.0,1.0,51,0.00,,---,0.00,377.00,VWS V14.00,2013-02-16 21:12:00,
2013-02-16 15:17:00,19.1,4.0,30.13,SW,223,2.0,2.0,51,0.00,,---,0.00,377.00,VWS V14.00,2013-02-16 21:17:00,
2013-02-16 15:22:00,19.2,4.1,30.13,SE,128,1.0,1.0,51,0.00,,---,0.00,377.00,VWS V14.00,2013-02-16 21:22:00,
2013-02-16 15:27:00,18.9,3.3,30.13,ESE,110,2.0,3.0,50,0.00,,---,0.00,377.00,VWS V14.00,2013-02-16 21:27:00,
2013-02-16 15:32:00,18.9,3.3,30.13,SE,133,1.0,1.0,50,0.00,,---,0.00,377.00,VWS V14.00,2013-02-16 21:32:00,
2013-02-16 15:37:00,18.6,3.5,30.13,East,89,1.0,1.0,51,0.00,,---,0.00,377.00,VWS V14.00,2013-02-16 21:37:00,
2013-02-16 15:42:00,18.6,3.5,30.13,ENE,75,0.0,0.0,51,0.00,,---,0.00,377.00,VWS V14.00,2013-02-16 21:42:00,
2013-02-16 15:47:00,18.6,3.5,30.13,NW,305,0.0,0.0,51,0.00,,---,0.00,377.00,VWS V14.00,2013-02-16 21:47:00,
2013-02-16 15:52:00,18.6,3.5,30.13,SW,217,1.0,1.0,51,0.00,,---,0.00,377.00,VWS V14.00,2013-02-16 21:52:00,
2013-02-16 15:57:00,18.6,3.5,30.13,SSE,154,1.0,1.0,51,0.00,,---,0.00,377.00,VWS V14.00,2013-02-16 21:57:00,
2013-02-16 16:02:00,19.1,4.0,30.13,ESE,123,1.0,1.0,51,0.00,,---,0.00,234.00,VWS V14.00,2013-02-16 22:02:00,
2013-02-16 16:07:00,19.1,4.0,30.13,SE,128,1.0,1.0,51,0.00,,---,0.00,234.00,VWS V14.00,2013-02-16 22:07:00,
2013-02-16 16:12:00,18.9,3.8,30.13,ENE,73,0.0,1.0,51,0.00,,---,0.00,234.00,VWS V14.00,2013-02-16 22:12:00,
2013-02-16 16:17:00,18.8,3.2,30.12,East,97,2.0,2.0,50,0.00,,---,0.00,234.00,VWS V14.00,2013-02-16 22:17:00,
2013-02-16 16:22:00,18.6,3.1,30.12,ESE,117,3.0,3.0,50,0.00,,---,0.00,234.00,VWS V14.00,2013-02-16 22:22:00,
2013-02-16 16:27:00,18.6,3.1,30.12,ESE,113,0.0,0.0,50,0.00,,---,0.00,234.00,VWS V14.00,2013-02-16 22:27:00,
2013-02-16 16:32:00,18.1,2.6,30.12,East,86,1.0,1.0,50,0.00,,---,0.00,234.00,VWS V14.00,2013-02-16 22:32:00,
2013-02-16 16:37:00,18.0,2.5,30.12,NE,41,1.0,1.0,50,0.00,,---,0.00,234.00,VWS V14.00,2013-02-16 22:37:00,
2013-02-16 16:42:00,18.0,2.5,30.12,ESE,104,1.0,2.0,50,0.00,,---,0.00,234.00,VWS V14.00,2013-02-16 22:42:00,
2013-02-16 16:47:00,18.1,2.6,30.13,ESE,104,0.0,0.0,50,0.00,,---,0.00,234.00,VWS V14.00,2013-02-16 22:47:00,
2013-02-16 16:52:00,18.1,2.6,30.13,East,83,1.0,2.0,50,0.00,,---,0.00,39.00,VWS V14.00,2013-02-16 22:52:00,
2013-02-16 16:57:00,18.0,3.3,30.13,ESE,117,1.0,2.0,52,0.00,,---,0.00,30.00,VWS V14.00,2013-02-16 22:57:00,
2013-02-16 17:02:00,17.8,3.2,30.13,ESE,103,1.0,1.0,52,0.00,,---,0.00,30.00,VWS V14.00,2013-02-16 23:02:00,
2013-02-16 17:07:00,17.8,3.2,30.13,ESE,123,0.0,0.0,52,0.00,,---,0.00,30.00,VWS V14.00,2013-02-16 23:07:00,
2013-02-16 17:12:00,17.8,3.6,30.13,ESE,123,1.0,1.0,53,0.00,,---,0.00,30.00,VWS V14.00,2013-02-16 23:12:00,
2013-02-16 17:17:00,17.8,3.6,30.13,ESE,121,0.0,0.0,53,0.00,,---,0.00,30.00,VWS V14.00,2013-02-16 23:17:00,
2013-02-16 17:22:00,17.7,3.1,30.13,ESE,104,0.0,0.0,52,0.00,,---,0.00,9.00,VWS V14.00,2013-02-16 23:22:00,
2013-02-16 17:27:00,17.7,3.1,30.13,ESE,112,1.0,1.0,52,0.00,,---,0.00,9.00,VWS V14.00,2013-02-16 23:27:00,
2013-02-16 17:32:00,17.7,3.5,30.13,SE,124,1.0,1.0,53,0.00,,---,0.00,7.00,VWS V14.00,2013-02-16 23:32:00,
2013-02-16 17:37:00,17.7,3.9,30.13,SE,143,0.0,1.0,54,0.00,,---,0.00,7.00,VWS V14.00,2013-02-16 23:37:00,
2013-02-16 17:42:00,17.7,3.9,30.13,SE,143,0.0,0.0,54,0.00,,---,0.00,7.00,VWS V14.00,2013-02-16 23:42:00,
2013-02-16 17:47:00,17.7,3.9,30.13,SE,130,2.0,2.0,54,0.00,,---,0.00,0.00,VWS V14.00,2013-02-16 23:47:00,
2013-02-16 17:52:00,17.7,5.4,30.13,SE,126,0.0,0.0,58,0.00,,---,0.00,0.00,VWS V14.00,2013-02-16 23:52:00,
2013-02-16 17:57:00,17.5,5.3,30.13,SE,128,1.0,1.0,58,0.00,,---,0.00,0.00,VWS V14.00,2013-02-16 23:57:00,
2013-02-16 18:02:00,17.2,4.2,30.13,SE,128,0.0,0.0,56,0.00,,---,0.00,0.00,VWS V14.00,2013-02-17 00:02:00,
2013-02-16 18:07:00,17.3,4.3,30.13,SE,128,0.0,0.0,56,0.00,,---,0.00,0.00,VWS V14.00,2013-02-17 00:07:00,
2013-02-16 18:12:00,17.0,4.4,30.13,SE,128,0.0,0.0,57,0.00,,---,0.00,0.00,VWS V14.00,2013-02-17 00:12:00,
2013-02-16 18:17:00,16.4,3.8,30.13,SE,128,0.0,0.0,57,0.00,,---,0.00,0.00,VWS V14.00,2013-02-17 00:17:00,
2013-02-16 18:22:00,16.4,3.5,30.13,SE,128,0.0,0.0,56,0.00,,---,0.00,0.00,VWS V14.00,2013-02-17 00:22:00,
2013-02-16 18:27:00,16.4,3.5,30.13,SE,128,0.0,0.0,56,0.00,,---,0.00,0.00,VWS V14.00,2013-02-17 00:27:00,
2013-02-16 18:32:00,15.7,2.8,30.13,SE,127,1.0,1.0,56,0.00,,---,0.00,0.00,VWS V14.00,2013-02-17 00:32:00,
2013-02-16 18:37:00,15.6,4.2,30.13,SE,126,3.0,3.0,60,0.00,,---,0.00,0.00,VWS V14.00,2013-02-17 00:37:00,
2013-02-16 18:42:00,15.6,4.2,30.13,SE,127,2.0,2.0,60,0.00,,---,0.00,0.00,VWS V14.00,2013-02-17 00:42:00,
2013-02-16 18:47:00,15.4,4.0,30.13,SE,134,1.0,1.0,60,0.00,,---,0.00,0.00,VWS V14.00,2013-02-17 00:47:00,
2013-02-16 18:52:00,15.2,3.8,30.13,SE,137,1.0,2.0,60,0.00,,---,0.00,0.00,VWS V14.00,2013-02-17 00:52:00,
2013-02-16 18:57:00,15.1,4.4,30.13,SE,131,2.0,2.0,62,0.00,,---,0.00,0.00,VWS V14.00,2013-02-17 00:57:00,
2013-02-16 19:02:00,15.1,4.4,30.13,SE,128,2.0,2.0,62,0.00,,---,0.00,0.00,VWS V14.00,2013-02-17 01:02:00,
2013-02-16 19:07:00,14.8,4.2,30.13,SE,127,1.0,1.0,62,0.00,,---,0.00,0.00,VWS V14.00,2013-02-17 01:07:00,
2013-02-16 19:12:00,14.4,4.1,30.13,SE,145,1.0,1.0,63,0.00,,---,0.00,0.00,VWS V14.00,2013-02-17 01:12:00,
2013-02-16 19:17:00,14.4,4.1,30.13,SE,124,3.0,3.0,63,0.00,,---,0.00,0.00,VWS V14.00,2013-02-17 01:17:00,
2013-02-16 19:22:00,14.4,4.1,30.13,SE,136,1.0,1.0,63,0.00,,---,0.00,0.00,VWS V14.00,2013-02-17 01:22:00,
2013-02-16 19:27:00,13.6,3.7,30.13,ESE,106,1.0,2.0,64,0.00,,---,0.00,0.00,VWS V14.00,2013-02-17 01:27:00,
2013-02-16 19:32:00,13.5,3.6,30.12,ESE,120,1.0,1.0,64,0.00,,---,0.00,0.00,VWS V14.00,2013-02-17 01:32:00,
2013-02-16 19:37:00,13.5,3.6,30.12,SSE,148,1.0,1.0,64,0.00,,---,0.00,0.00,VWS V14.00,2013-02-17 01:37:00,
2013-02-16 19:42:00,13.5,3.6,30.12,SSE,148,1.0,1.0,64,0.00,,---,0.00,0.00,VWS V14.00,2013-02-17 01:42:00,
2013-02-16 19:47:00,13.3,3.4,30.13,SSE,148,0.0,0.0,64,0.00,,---,0.00,0.00,VWS V14.00,2013-02-17 01:47:00,
2013-02-16 19:52:00,13.3,3.4,30.13,ESE,123,1.0,1.0,64,0.00,,---,0.00,0.00,VWS V14.00,2013-02-17 01:52:00,
2013-02-16 19:57:00,12.9,3.0,30.13,SE,130,1.0,1.0,64,0.00,,---,0.00,0.00,VWS V14.00,2013-02-17 01:57:00,
2013-02-16 20:02:00,12.8,2.9,30.13,ESE,112,1.0,1.0,64,0.00,,---,0.00,0.00,VWS V14.00,2013-02-17 02:02:00,
2013-02-16 20:07:00,12.8,2.9,30.13,ESE,110,1.0,1.0,64,0.00,,---,0.00,0.00,VWS V14.00,2013-02-17 02:07:00,
2013-02-16 20:12:00,12.1,2.9,30.13,ESE,121,2.0,2.0,66,0.00,,---,0.00,0.00,VWS V14.00,2013-02-17 02:12:00,
2013-02-16 20:17:00,12.3,3.8,30.13,ESE,113,1.0,1.0,68,0.00,,---,0.00,0.00,VWS V14.00,2013-02-17 02:17:00,
2013-02-16 20:22:00,12.3,3.8,30.13,ESE,113,1.0,1.0,68,0.00,,---,0.00,0.00,VWS V14.00,2013-02-17 02:22:00,
2013-02-16 20:27:00,12.4,3.9,30.13,ESE,113,1.0,1.0,68,0.00,,---,0.00,0.00,VWS V14.00,2013-02-17 02:27:00,
2013-02-16 20:32:00,12.4,4.2,30.13,ESE,113,0.0,0.0,69,0.00,,---,0.00,0.00,VWS V14.00,2013-02-17 02:32:00,
2013-02-16 20:37:00,12.3,3.8,30.13,ESE,113,0.0,0.0,68,0.00,,---,0.00,0.00,VWS V14.00,2013-02-17 02:37:00,
2013-02-16 20:42:00,12.1,3.6,30.13,ESE,113,0.0,0.0,68,0.00,,---,0.00,0.00,VWS V14.00,2013-02-17 02:42:00,
2013-02-16 20:47:00,12.1,3.6,30.13,ESE,113,0.0,0.0,68,0.00,,---,0.00,0.00,VWS V14.00,2013-02-17 02:47:00,
2013-02-16 20:52:00,11.2,2.7,30.13,ESE,113,0.0,0.0,68,0.00,,---,0.00,0.00,VWS V14.00,2013-02-17 02:52:00,
2013-02-16 20:57:00,11.2,2.7,30.13,ESE,113,0.0,0.0,68,0.00,,---,0.00,0.00,VWS V14.00,2013-02-17 02:57:00,
2013-02-16 21:02:00,11.2,2.7,30.13,ESE,113,0.0,0.0,68,0.00,,---,0.00,0.00,VWS V14.00,2013-02-17 03:02:00,
2013-02-16 21:07:00,11.2,2.7,30.13,ESE,113,0.0,0.0,68,0.00,,---,0.00,0.00,VWS V14.00,2013-02-17 03:07:00,
2013-02-16 21:12:00,10.4,2.0,30.13,ESE,113,1.0,1.0,68,0.00,,---,0.00,0.00,VWS V14.00,2013-02-17 03:12:00,
2013-02-16 21:17:00,10.4,2.0,30.13,ESE,109,0.0,0.0,68,0.00,,---,0.00,0.00,VWS V14.00,2013-02-17 03:17:00,
2013-02-16 21:22:00,10.2,1.8,30.13,ESE,107,0.0,1.0,68,0.00,,---,0.00,0.00,VWS V14.00,2013-02-17 03:22:00,
2013-02-16 21:27:00,10.0,2.5,30.13,ESE,106,1.0,1.0,71,0.00,,---,0.00,0.00,VWS V14.00,2013-02-17 03:27:00,
2013-02-16 21:32:00,10.2,2.7,30.13,ESE,120,0.0,0.0,71,0.00,,---,0.00,0.00,VWS V14.00,2013-02-17 03:32:00,
2013-02-16 21:37:00,10.2,2.7,30.13,ESE,119,1.0,1.0,71,0.00,,---,0.00,0.00,VWS V14.00,2013-02-17 03:37:00,
2013-02-16 21:42:00,10.2,2.7,30.13,ESE,113,1.0,1.0,71,0.00,,---,0.00,0.00,VWS V14.00,2013-02-17 03:42:00,
2013-02-16 21:47:00,10.2,2.7,30.13,ESE,117,1.0,1.0,71,0.00,,---,0.00,0.00,VWS V14.00,2013-02-17 03:47:00,
2013-02-16 21:52:00,10.2,2.7,30.13,East,97,1.0,1.0,71,0.00,,---,0.00,0.00,VWS V14.00,2013-02-17 03:52:00,
2013-02-16 21:57:00,9.5,2.0,30.13,ESE,102,0.0,0.0,71,0.00,,---,0.00,0.00,VWS V14.00,2013-02-17 03:57:00,
2013-02-16 22:02:00,9.5,2.3,30.12,East,89,1.0,1.0,72,0.00,,---,0.00,0.00,VWS V14.00,2013-02-17 04:02:00,
2013-02-16 22:07:00,9.5,2.3,30.12,East,97,1.0,1.0,72,0.00,,---,0.00,0.00,VWS V14.00,2013-02-17 04:07:00,
2013-02-16 22:12:00,9.2,2.0,30.12,East,96,1.0,1.0,72,0.00,,---,0.00,0.00,VWS V14.00,2013-02-17 04:12:00,
2013-02-16 22:17:00,9.2,2.3,30.11,ESE,107,1.0,1.0,73,0.00,,---,0.00,0.00,VWS V14.00,2013-02-17 04:17:00,
2013-02-16 22:22:00,9.2,2.3,30.11,ESE,113,2.0,2.0,73,0.00,,---,0.00,0.00,VWS V14.00,2013-02-17 04:22:00,
2013-02-16 22:27:00,9.0,2.1,30.11,SE,130,0.0,2.0,73,0.00,,---,0.00,0.00,VWS V14.00,2013-02-17 04:27:00,
2013-02-16 22:32:00,9.0,2.1,30.11,SE,131,2.0,2.0,73,0.00,,---,0.00,0.00,VWS V14.00,2013-02-17 04:32:00,
2013-02-16 22:37:00,9.2,2.3,30.11,SE,126,2.0,2.0,73,0.00,,---,0.00,0.00,VWS V14.00,2013-02-17 04:37:00,
2013-02-16 22:42:00,9.2,2.3,30.11,ESE,121,2.0,2.0,73,0.00,,---,0.00,0.00,VWS V14.00,2013-02-17 04:42:00,
2013-02-16 22:47:00,9.2,2.3,30.11,ESE,117,3.0,3.0,73,0.00,,---,0.00,0.00,VWS V14.00,2013-02-17 04:47:00,
2013-02-16 22:51:00,8.6,1.7,30.11,SE,127,3.0,3.0,73,0.00,,---,0.00,0.00,VWS V14.00,2013-02-17 04:51:00,
2013-02-16 22:56:00,8.8,1.9,30.11,SE,124,2.0,2.0,73,0.00,,---,0.00,0.00,VWS V14.00,2013-02-17 04:56:00,
2013-02-16 23:00:00,8.8,1.9,30.10,SE,141,2.0,2.0,73,0.00,,---,0.00,0.00,VWS V14.00,2013-02-17 05:00:00,
2013-02-16 23:05:00,8.6,1.7,30.10,ESE,120,2.0,2.0,73,0.00,,---,0.00,0.00,VWS V14.00,2013-02-17 05:05:00,
2013-02-16 23:10:00,8.6,1.7,30.10,ESE,119,2.0,2.0,73,0.00,,---,0.00,0.00,VWS V14.00,2013-02-17 05:10:00,
2013-02-16 23:15:00,8.6,1.7,30.09,SE,127,2.0,2.0,73,0.00,,---,0.00,0.00,VWS V14.00,2013-02-17 05:15:00,
2013-02-16 23:20:00,8.8,1.9,30.09,ESE,121,1.0,1.0,73,0.00,,---,0.00,0.00,VWS V14.00,2013-02-17 05:20:00,
2013-02-16 23:25:00,8.8,1.9,30.09,ESE,116,1.0,2.0,73,0.00,,---,0.00,0.00,VWS V14.00,2013-02-17 05:25:00,
2013-02-16 23:30:00,8.8,2.2,30.09,ESE,120,1.0,2.0,74,0.00,,---,0.00,0.00,VWS V14.00,2013-02-17 05:30:00,
2013-02-16 23:35:00,8.8,2.2,30.09,SE,128,2.0,3.0,74,0.00,,---,0.00,0.00,VWS V14.00,2013-02-17 05:35:00,
2013-02-16 23:40:00,8.6,2.0,30.09,ESE,120,2.0,2.0,74,0.00,,---,0.00,0.00,VWS V14.00,2013-02-17 05:40:00,
2013-02-16 23:45:00,8.4,1.8,30.09,ESE,102,1.0,1.0,74,0.00,,---,0.00,0.00,VWS V14.00,2013-02-17 05:45:00,
2013-02-16 23:50:00,8.3,1.7,30.09,ESE,110,2.0,2.0,74,0.00,,---,0.00,0.00,VWS V14.00,2013-02-17 05:50:00,
2013-02-16 23:55:00,8.1,1.5,30.09,ESE,112,1.0,1.0,74,0.00,,---,0.00,0.00,VWS V14.00,2013-02-17 05:55:00,